TimeEDT,TemperatureF,Dew PointF,Humidity,Sea Level PressureIn,VisibilityMPH,Wind Direction,Wind SpeedMPH,Gust SpeedMPH,PrecipitationIn,Events,Conditions,WindDirDegrees,DateUTC
12:51 AM,56.8,50.9,80,30.79,10.0,Calm,Calm,-,N/A,,Clear,0,2013-09-16 04:51:00
1:51 AM,55.9,52.9,89,30.76,10.0,Calm,Calm,-,N/A,,Clear,0,2013-09-16 05:51:00
2:51 AM,54.9,52.0,90,30.76,10.0,Calm,Calm,-,N/A,,Clear,0,2013-09-16 06:51:00
3:51 AM,55.9,52.0,87,30.76,10.0,Calm,Calm,-,N/A,,Clear,0,2013-09-16 07:51:00
4:51 AM,54.9,52.9,93,30.75,10.0,Calm,Calm,-,N/A,,Clear,0,2013-09-16 08:51:00
5:51 AM,54.9,52.9,93,30.77,10.0,Calm,Calm,-,N/A,,Clear,0,2013-09-16 09:51:00
6:51 AM,54.9,52.9,93,30.77,10.0,Calm,Calm,-,N/A,,Clear,0,2013-09-16 10:51:00
7:51 AM,55.9,52.9,89,30.80,10.0,Calm,Calm,-,N/A,,Mostly Cloudy,0,2013-09-16 11:51:00
8:51 AM,56.8,54.0,90,30.80,10.0,Calm,Calm,-,0.00,Rain,Light Rain,0,2013-09-16 12:51:00
9:51 AM,56.8,54.0,90,30.79,10.0,Calm,Calm,-,0.01,Rain,Light Rain,0,2013-09-16 13:51:00
10:51 AM,57.9,54.0,87,30.80,10.0,Calm,Calm,-,0.00,,Mostly Cloudy,0,2013-09-16 14:51:00
11:51 AM,61.9,54.0,75,30.79,10.0,SE,3.5,-,N/A,,Scattered Clouds,140,2013-09-16 15:51:00
12:51 PM,63.9,48.9,58,30.78,10.0,NNW,6.9,-,N/A,,Overcast,340,2013-09-16 16:51:00
1:51 PM,65.8,48.9,54,30.77,10.0,NW,11.5,-,N/A,,Mostly Cloudy,320,2013-09-16 17:51:00
2:51 PM,64.9,48.9,56,30.79,10.0,NNW,10.4,20.7,N/A,,Mostly Cloudy,340,2013-09-16 18:51:00
3:51 PM,63.0,50.0,63,30.79,10.0,North,8.1,-,N/A,,Mostly Cloudy,360,2013-09-16 19:51:00
4:51 PM,61.9,47.8,60,30.81,10.0,North,13.8,19.6,N/A,,Scattered Clouds,10,2013-09-16 20:51:00
5:51 PM,61.0,43.0,52,30.84,10.0,North,16.1,21.9,N/A,,Scattered Clouds,350,2013-09-16 21:51:00
6:51 PM,56.8,41.0,55,30.87,10.0,North,16.1,24.2,N/A,,Scattered Clouds,350,2013-09-16 22:51:00
7:51 PM,54.0,39.9,59,30.90,10.0,North,6.9,-,N/A,,Clear,360,2013-09-16 23:51:00
8:51 PM,52.0,37.9,59,30.94,10.0,North,12.7,-,N/A,,Clear,350,2013-09-17 00:51:00
9:51 PM,50.0,36.0,59,30.97,10.0,NNW,10.4,-,N/A,,Clear,330,2013-09-17 01:51:00
10:51 PM,47.8,34.9,61,31.00,10.0,NNW,10.4,-,N/A,,Clear,340,2013-09-17 02:51:00
11:51 PM,45.9,34.9,66,31.02,10.0,NNW,6.9,-,N/A,,Clear,340,2013-09-17 03:51:00